NOAA 16 DEB, 42371

Orbit data source: Space-Track

NOAA 16 DEB, 42371 is space debris in SSO originally from a launch on Thu, 21 Sep 2000 UTC launched from the Air Force Western Test Range (AFWTR). Debris objects in space refer to the collection of defunct objects orbiting the Earth. Examples of debris include non-operational satellites, rocket bodies, and fragments generated from explosions, collisions, or faulty payload assembly.

Loading next visibility...
Identifier
42371, 2000-055RP
Orbit
SSO
Country
Flag of USUS
Related business
Manufacturer
Unknown
Mission
Spacecraft
Bus & Motor
Unknown
Mass
Unknown
Launch date (UTC)
2000-09-21 (25 years ago)
Launch vehicle
Unknown
Launch site
Air Force Western Test Range (AFWTR)
Object type
Payload
Rocket body
Debris
Shape & HBR
Unknown shape, 0.1 m
Radar Cross Section
Small (<0.1 m²)

Expand to show TLE details & history
Last TLE update: 1 day ago

TLE from 1 day ago
0 NOAA 16 DEB
1 42371U 00055RP  25299.47481145  .00015372  00000-0  35955-2 0  9995
2 42371  99.0669 206.7959 0037564  52.9747 307.4874 14.54285100508517
Epoch: 2025-10-26T11:23Z
TLE epoch observation values (Epoch: 2025-10-26T11:23:43.709Z)
Latitude
-0.00003°
Longitude
0.7733°
Altitude
698.489 km
Speed
7.515 km/s
True Right ascension
13h 47m 11s
True Declination
0° 00' 00"
Sunlit
Object was in daylight at epoch
Visualization orbit readout
Latitude
Unknown
Longitude
Unknown
Altitude
Unknown
Speed
Unknown
Apparent Right ascension
Unknown
Apparent Declination
Unknown
Sunlit
N/A
Visualization observer readout
Local Sidereal Time
16:36:18
Azimuth
Unknown
Elevation
Unknown
Doppler factor
Unknown
Orbital elements
Apogee altitude
735.439 km
Perigee altitude
682.196 km
Semi-major axis
7,086.955 km
Eccentricity
0.00376
Inclination
99.0669°
RAAN
206.7959°
Arg. of periapsis
52.9747°
True anomaly
307.14487°
Mean anomaly
307.4874°
Eccentric anomaly
307.31623°
Mean motion
3.63792 °/min
Orbital period
98.96 mins
BSTAR
0.0035955
Loading maneuver chart data...
Computing Atmospheric mass density...
Loading historical data...
Loading historical data...
Loading historical data...
Loading historical data...
Loading historical data...
Loading historical data...
Loading historical data...

Documentation

Showing up to 5 results
|